User: anonymous   Login
Location: Unspecified
(49.2170°N, 0.0000°E)
Time: 09:58:51
(UTC+00:00)
Language:

Explorer 7 - Orbit

View from above orbital plane
View from above orbital plane
View from above satellite
View from above satellite

Ground track
Ground track

The orbit data is extracted from the following two-line orbital elements,

1 00022U 59009A   21023.77750293  .00000033  00000-0  25770-4 0  9996
2 00022  50.2835 148.1340 0138850  20.6577 339.9908 14.95387632503335
Epoch (UTC): 23 January 2021 18:39:36
Eccentricity: 0.0138850
inclination: 50.2835°
perigee height: 484 km
apogee height: 678 km
right ascension of ascending node: 148.1340°
argument of perigee: 20.6577°
revolutions per day: 14.95387632
mean anomaly at epoch: 339.9908°
orbit number at epoch: 50333

The dashed part of the orbit path shows where the satellite is in the earth's shadow,  

DLR